"Period start","avg(HW err(1)/warn(2) (#))","avg(Visibility (m))","avg(Weather code (#))","avg(Precip intensity (mm/h))","min(HW err(1)/warn(2) (#))","max(HW err(1)/warn(2) (#))","std(HW err(1)/warn(2) (#))","med(HW err(1)/warn(2) (#))","min(Visibility (m))","max(Visibility (m))","std(Visibility (m))","med(Visibility (m))","min(Weather code (#))","max(Weather code (#))","std(Weather code (#))","med(Weather code (#))","min(Precip intensity (mm/h))","max(Precip intensity (mm/h))","std(Precip intensity (mm/h))","med(Precip intensity (mm/h))"
2016-09-17 00:00:00,2,12482,52,0.21,2,2,0,2,9084,18050,2396,11844,51,61,3,51,0.00,0.60,0.19,0.17
2016-09-17 00:10:00,2,15608,31,0.08,2,2,0,2,9157,25371,5714,13858,0,51,25,51,0.00,0.45,0.14,0.00
2016-09-17 00:20:00,2,22118,0,0.00,2,2,0,2,16956,27217,3014,22101,0,0,0,0,0.00,0.00,0.00,0.00
2016-09-17 00:30:00,2,23770,46,0.08,2,2,0,2,15197,30775,5189,26077,0,61,16,51,0.00,0.25,0.09,0.05
2016-09-17 00:40:00,2,26004,61,0.03,2,2,0,2,20798,29375,2157,26044,61,61,0,61,0.00,0.15,0.05,0.00
2016-09-17 00:50:00,2,40740,0,0.00,2,2,0,2,34095,49713,4159,41510,0,0,0,0,0.00,0.00,0.00,0.00
2016-09-17 01:00:00,2,31214,0,0.00,2,2,0,2,25195,39465,3896,31482,0,0,0,0,0.00,0.00,0.00,0.00
2016-09-17 01:10:00,2,35135,0,0.00,2,2,0,2,28370,40244,3328,35262,0,0,0,0,0.00,0.00,0.00,0.00
2016-09-17 01:20:00,2,23945,0,0.00,2,2,0,2,12178,35068,8658,25000,0,0,0,0,0.00,0.00,0.00,0.00
2016-09-17 01:30:00,2,37231,0,0.00,2,2,0,2,31864,42766,3160,36280,0,0,0,0,0.00,0.00,0.00,0.00
2016-09-17 01:40:00,2,32506,0,0.00,2,2,0,2,25044,39810,4249,32928,0,0,0,0,0.00,0.00,0.00,0.00
2016-09-17 01:50:00,2,37714,6,0.01,2,2,0,2,24081,50000,6800,37714,0,61,18,0,0.00,0.05,0.02,0.00
2016-09-17 02:00:00,2,23141,61,1.76,2,2,0,2,13797,40473,8134,21310,61,61,0,61,0.30,3.45,1.05,1.65
2016-09-17 02:10:00,2,16807,61,2.22,2,2,0,2,10981,22667,3272,17649,61,61,0,61,0.25,5.25,1.64,1.68
2016-09-17 02:20:00,2,22803,57,0.14,2,2,0,2,10088,33642,8365,24328,51,61,5,61,0.00,0.45,0.13,0.15
2016-09-17 02:30:00,2,30174,26,0.02,2,2,0,2,27070,35829,2696,29698,0,51,26,26,0.00,0.10,0.03,0.00
2016-09-17 02:40:00,2,28092,30,0.12,0,2,1,2,23362,35947,3674,26988,0,61,30,30,0.00,0.75,0.23,0.03
2016-09-17 02:50:00,2,19346,55,5.30,2,2,0,2,9582,30219,7494,17193,51,61,5,51,0.00,24.15,7.16,1.95
2016-09-17 03:00:00,2,25708,37,1.99,2,2,0,2,11762,37652,8451,28546,0,62,30,61,0.00,12.60,3.70,0.45
2016-09-17 03:10:00,2,42567,0,0.00,2,2,0,2,38552,48421,2942,42196,0,0,0,0,0.00,0.00,0.00,0.00
2016-09-17 03:20:00,2,41639,0,0.00,2,2,0,2,14819,50000,11484,46436,0,0,0,0,0.00,0.00,0.00,0.00
2016-09-17 03:30:00,2,23134,0,0.00,2,2,0,2,9807,43697,11416,16824,0,0,0,0,0.00,0.00,0.00,0.00
2016-09-17 03:40:00,2,44387,0,0.00,2,2,0,2,37822,50000,4124,44476,0,0,0,0,0.00,0.00,0.00,0.00
2016-09-17 03:50:00,2,40485,0,0.00,2,2,0,2,33107,50000,5277,41466,0,0,0,0,0.00,0.00,0.00,0.00
2016-09-17 04:00:00,2,41406,0,0.00,2,2,0,2,36645,46565,3424,41140,0,0,0,0,0.00,0.00,0.00,0.00
2016-09-17 04:10:00,2,39134,0,0.00,2,2,0,2,33961,46322,4516,37780,0,0,0,0,0.00,0.00,0.00,0.00
2016-09-17 04:20:00,2,29559,0,0.00,2,2,0,2,22070,39382,5239,29118,0,0,0,0,0.00,0.00,0.00,0.00
2016-09-17 04:30:00,2,31489,0,0.00,2,2,0,2,28569,33436,1677,31721,0,0,0,0,0.00,0.00,0.00,0.00
2016-09-17 04:40:00,2,28748,0,0.00,2,2,0,2,25609,32999,2182,29142,0,0,0,0,0.00,0.00,0.00,0.00
2016-09-17 04:50:00,2,29397,0,0.00,2,2,0,2,24296,35493,3663,27952,0,0,0,0,0.00,0.00,0.00,0.00
2016-09-17 05:00:00,2,26898,0,0.00,0,2,1,2,22182,30022,2240,27474,0,0,0,0,0.00,0.00,0.00,0.00
2016-09-17 05:10:00,2,27842,0,0.00,2,2,0,2,23785,32377,2596,27569,0,0,0,0,0.00,0.00,0.00,0.00
2016-09-17 05:20:00,2,33238,0,0.00,2,2,0,2,28433,40777,4165,31651,0,0,0,0,0.00,0.00,0.00,0.00
2016-09-17 05:30:00,1,32487,0,0.00,0,2,1,2,23514,45094,6583,31434,0,0,0,0,0.00,0.00,0.00,0.00
2016-09-17 05:40:00,2,34400,0,0.00,0,2,1,2,30125,37749,2649,34530,0,0,0,0,0.00,0.00,0.00,0.00
2016-09-17 05:50:00,2,31645,0,0.00,2,2,0,2,26848,37039,2897,31364,0,0,0,0,0.00,0.00,0.00,0.00
2016-09-17 06:00:00,2,31086,0,0.00,0,2,1,2,24883,36727,3079,31908,0,0,0,0,0.00,0.00,0.00,0.00
2016-09-17 06:10:00,2,34787,0,0.00,0,2,1,2,27692,40222,3509,35334,0,0,0,0,0.00,0.00,0.00,0.00
2016-09-17 06:20:00,2,31952,17,0.09,0,2,1,2,26878,36468,2979,31958,0,61,27,0,0.00,0.45,0.18,0.00
2016-09-17 06:30:00,2,33996,0,0.00,0,2,1,2,30108,38208,3140,32882,0,0,0,0,0.00,0.00,0.00,0.00
2016-09-17 06:40:00,2,34619,0,0.00,2,2,0,2,30969,39677,2733,33688,0,0,0,0,0.00,0.00,0.00,0.00
2016-09-17 06:50:00,2,34728,20,0.07,0,2,1,2,30501,44549,4180,33560,0,61,26,0,0.00,0.40,0.13,0.00
2016-09-17 07:00:00,2,36696,0,0.00,0,2,1,2,31707,42096,3399,35614,0,0,0,0,0.00,0.00,0.00,0.00
2016-09-17 07:10:00,2,39734,0,0.00,0,2,1,2,34032,45098,3749,41005,0,0,0,0,0.00,0.00,0.00,0.00
2016-09-17 07:20:00,2,44692,0,0.00,2,2,0,2,38243,50000,3774,45469,0,0,0,0,0.00,0.00,0.00,0.00
2016-09-17 07:30:00,2,49530,0,0.00,2,2,0,2,45951,50000,1205,50000,0,0,0,0,0.00,0.00,0.00,0.00
2016-09-17 07:40:00,2,47309,0,0.00,0,2,1,2,42053,50000,2835,47822,0,0,0,0,0.00,0.00,0.00,0.00
2016-09-17 07:50:00,2,49432,0,0.00,2,2,0,2,46815,50000,1053,50000,0,0,0,0,0.00,0.00,0.00,0.00
2016-09-17 08:00:00,2,49571,0,0.00,0,2,1,2,47997,50000,699,50000,0,0,0,0,0.00,0.00,0.00,0.00
2016-09-17 08:10:00,2,49787,0,0.00,0,2,1,2,47869,50000,639,50000,0,0,0,0,0.00,0.00,0.00,0.00
2016-09-17 08:20:00,2,50000,0,0.00,0,2,1,2,50000,50000,0,50000,0,0,0,0,0.00,0.00,0.00,0.00
2016-09-17 08:30:00,2,48661,0,0.00,2,2,0,2,42484,50000,2267,50000,0,0,0,0,0.00,0.00,0.00,0.00
2016-09-17 08:40:00,2,48636,0,0.00,2,2,0,2,42186,50000,2417,50000,0,0,0,0,0.00,0.00,0.00,0.00
2016-09-17 08:50:00,2,48951,0,0.00,2,2,0,2,44789,50000,1584,49690,0,0,0,0,0.00,0.00,0.00,0.00
2016-09-17 09:00:00,2,49609,0,0.00,0,2,1,2,47681,50000,799,50000,0,0,0,0,0.00,0.00,0.00,0.00
2016-09-17 09:10:00,0,49880,0,0.00,0,0,0,0,48803,50000,359,50000,0,0,0,0,0.00,0.00,0.00,0.00
2016-09-17 09:20:00,0,49120,0,0.00,0,0,0,0,47029,50000,1070,49816,0,0,0,0,0.00,0.00,0.00,0.00
2016-09-17 09:30:00,0,48398,0,0.00,0,0,0,0,43241,50000,2291,49437,0,0,0,0,0.00,0.00,0.00,0.00
2016-09-17 09:40:00,0,49601,0,0.00,0,0,0,0,48062,50000,663,50000,0,0,0,0,0.00,0.00,0.00,0.00
2016-09-17 09:50:00,0,48577,0,0.00,0,0,0,0,45851,50000,1706,49600,0,0,0,0,0.00,0.00,0.00,0.00
2016-09-17 10:00:00,0,48294,0,0.00,0,0,0,0,43811,50000,1862,48639,0,0,0,0,0.00,0.00,0.00,0.00
2016-09-17 10:10:00,0,48582,0,0.00,0,0,0,0,42663,50000,2460,50000,0,0,0,0,0.00,0.00,0.00,0.00
2016-09-17 10:20:00,0,47671,0,0.00,0,2,1,0,41104,50000,2979,49152,0,0,0,0,0.00,0.00,0.00,0.00
2016-09-17 10:30:00,2,48306,0,0.00,2,2,0,2,43595,50000,2376,49678,0,0,0,0,0.00,0.00,0.00,0.00
2016-09-17 10:40:00,1,49020,0,0.00,0,2,1,2,46658,50000,1287,49898,0,0,0,0,0.00,0.00,0.00,0.00
2016-09-17 10:50:00,1,42980,0,0.00,0,2,1,1,33560,50000,5590,42628,0,0,0,0,0.00,0.00,0.00,0.00
2016-09-17 11:00:00,2,39813,0,0.00,0,2,1,2,36420,46854,3232,38465,0,0,0,0,0.00,0.00,0.00,0.00
2016-09-17 11:10:00,2,43867,0,0.00,2,2,0,2,36867,49691,4724,44560,0,0,0,0,0.00,0.00,0.00,0.00
2016-09-17 11:20:00,2,44753,0,0.00,2,2,0,2,36439,50000,4126,45794,0,0,0,0,0.00,0.00,0.00,0.00
2016-09-17 11:30:00,2,36725,0,0.00,0,2,1,2,28859,41585,3628,37580,0,0,0,0,0.00,0.00,0.00,0.00
2016-09-17 11:40:00,2,30762,0,0.00,0,2,1,2,18683,36784,6778,34730,0,0,0,0,0.00,0.00,0.00,0.00
2016-09-17 11:50:00,1,28361,0,0.00,0,2,1,0,18649,40368,6979,27364,0,0,0,0,0.00,0.00,0.00,0.00
2016-09-17 12:00:00,0,35688,0,0.00,0,0,0,0,31101,45502,4378,34138,0,0,0,0,0.00,0.00,0.00,0.00
2016-09-17 12:10:00,1,36496,0,0.00,0,2,1,2,30049,47485,5011,34852,0,0,0,0,0.00,0.00,0.00,0.00
2016-09-17 12:20:00,2,35769,17,0.05,2,2,0,2,31157,42039,3233,35528,0,61,27,0,0.00,0.35,0.11,0.00
2016-09-17 12:30:00,2,37924,51,0.16,2,2,0,2,32952,48055,3645,37239,51,51,0,51,0.00,0.55,0.19,0.10
2016-09-17 12:40:00,2,44655,51,0.12,2,2,0,2,37877,50000,4300,44442,51,51,0,51,0.00,0.60,0.18,0.00
2016-09-17 12:50:00,2,47691,20,0.02,2,2,0,2,40359,50000,3445,49761,0,51,25,0,0.00,0.10,0.03,0.00
2016-09-17 13:00:00,2,49886,0,0.00,2,2,0,2,48863,50000,341,50000,0,0,0,0,0.00,0.00,0.00,0.00
2016-09-17 13:10:00,2,50000,0,0.00,2,2,0,2,50000,50000,0,50000,0,0,0,0,0.00,0.00,0.00,0.00
2016-09-17 13:20:00,2,50000,0,0.00,2,2,0,2,50000,50000,0,50000,0,0,0,0,0.00,0.00,0.00,0.00
2016-09-17 13:30:00,2,49756,0,0.00,2,2,0,2,47558,50000,733,50000,0,0,0,0,0.00,0.00,0.00,0.00
2016-09-17 13:40:00,2,49986,0,0.00,2,2,0,2,49860,50000,42,50000,0,0,0,0,0.00,0.00,0.00,0.00
2016-09-17 13:50:00,2,50000,0,0.00,2,2,0,2,50000,50000,0,50000,0,0,0,0,0.00,0.00,0.00,0.00
2016-09-17 14:00:00,2,50000,0,0.00,2,2,0,2,50000,50000,0,50000,0,0,0,0,0.00,0.00,0.00,0.00
2016-09-17 14:10:00,2,50000,0,0.00,2,2,0,2,50000,50000,0,50000,0,0,0,0,0.00,0.00,0.00,0.00
2016-09-17 14:20:00,2,49842,0,0.00,2,2,0,2,48415,50000,476,50000,0,0,0,0,0.00,0.00,0.00,0.00
2016-09-17 14:30:00,2,50000,0,0.00,2,2,0,2,50000,50000,0,50000,0,0,0,0,0.00,0.00,0.00,0.00
2016-09-17 14:40:00,2,49773,0,0.00,2,2,0,2,49093,50000,352,50000,0,0,0,0,0.00,0.00,0.00,0.00
2016-09-17 14:50:00,2,49963,0,0.00,2,2,0,2,49629,50000,111,50000,0,0,0,0,0.00,0.00,0.00,0.00
2016-09-17 15:00:00,2,49010,0,0.00,2,2,0,2,40449,50000,2856,50000,0,0,0,0,0.00,0.00,0.00,0.00
2016-09-17 15:10:00,2,49240,0,0.00,2,2,0,2,47101,50000,1044,50000,0,0,0,0,0.00,0.00,0.00,0.00
2016-09-17 15:20:00,2,50000,0,0.00,2,2,0,2,50000,50000,0,50000,0,0,0,0,0.00,0.00,0.00,0.00
2016-09-17 15:30:00,2,49398,0,0.00,2,2,0,2,46638,50000,1214,50000,0,0,0,0,0.00,0.00,0.00,0.00
2016-09-17 15:40:00,2,50000,0,0.00,2,2,0,2,50000,50000,0,50000,0,0,0,0,0.00,0.00,0.00,0.00
2016-09-17 15:50:00,2,50000,0,0.00,2,2,0,2,50000,50000,0,50000,0,0,0,0,0.00,0.00,0.00,0.00
2016-09-17 16:00:00,2,50000,0,0.00,2,2,0,2,50000,50000,0,50000,0,0,0,0,0.00,0.00,0.00,0.00
2016-09-17 16:10:00,2,50000,0,0.00,2,2,0,2,50000,50000,0,50000,0,0,0,0,0.00,0.00,0.00,0.00
2016-09-17 16:20:00,2,50000,0,0.00,2,2,0,2,50000,50000,0,50000,0,0,0,0,0.00,0.00,0.00,0.00
2016-09-17 16:30:00,2,50000,0,0.00,2,2,0,2,50000,50000,0,50000,0,0,0,0,0.00,0.00,0.00,0.00
2016-09-17 16:40:00,2,49790,0,0.00,2,2,0,2,47900,50000,630,50000,0,0,0,0,0.00,0.00,0.00,0.00
2016-09-17 16:50:00,2,49642,0,0.00,2,2,0,2,46421,50000,1074,50000,0,0,0,0,0.00,0.00,0.00,0.00
2016-09-17 17:00:00,2,50000,0,0.00,2,2,0,2,50000,50000,0,50000,0,0,0,0,0.00,0.00,0.00,0.00
2016-09-17 17:10:00,2,50000,0,0.00,2,2,0,2,50000,50000,0,50000,0,0,0,0,0.00,0.00,0.00,0.00
2016-09-17 17:20:00,2,50000,0,0.00,2,2,0,2,50000,50000,0,50000,0,0,0,0,0.00,0.00,0.00,0.00
2016-09-17 17:30:00,2,50000,0,0.00,2,2,0,2,50000,50000,0,50000,0,0,0,0,0.00,0.00,0.00,0.00
2016-09-17 17:40:00,2,50000,0,0.00,2,2,0,2,50000,50000,0,50000,0,0,0,0,0.00,0.00,0.00,0.00
2016-09-17 17:50:00,2,50000,0,0.00,2,2,0,2,50000,50000,0,50000,0,0,0,0,0.00,0.00,0.00,0.00
2016-09-17 18:00:00,2,50000,0,0.00,2,2,0,2,50000,50000,0,50000,0,0,0,0,0.00,0.00,0.00,0.00
2016-09-17 18:10:00,2,50000,0,0.00,2,2,0,2,50000,50000,0,50000,0,0,0,0,0.00,0.00,0.00,0.00
2016-09-17 18:20:00,2,50000,0,0.00,2,2,0,2,50000,50000,0,50000,0,0,0,0,0.00,0.00,0.00,0.00
2016-09-17 18:30:00,2,50000,0,0.00,2,2,0,2,50000,50000,0,50000,0,0,0,0,0.00,0.00,0.00,0.00
2016-09-17 18:40:00,2,50000,0,0.00,2,2,0,2,50000,50000,0,50000,0,0,0,0,0.00,0.00,0.00,0.00
2016-09-17 18:50:00,2,48924,0,0.00,2,2,0,2,41885,50000,2463,50000,0,0,0,0,0.00,0.00,0.00,0.00
2016-09-17 19:00:00,2,50000,0,0.00,2,2,0,2,50000,50000,0,50000,0,0,0,0,0.00,0.00,0.00,0.00
2016-09-17 19:10:00,2,50000,0,0.00,2,2,0,2,50000,50000,0,50000,0,0,0,0,0.00,0.00,0.00,0.00
2016-09-17 19:20:00,2,49882,0,0.00,2,2,0,2,48819,50000,354,50000,0,0,0,0,0.00,0.00,0.00,0.00
2016-09-17 19:30:00,2,46838,0,0.00,2,2,0,2,36953,50000,4480,50000,0,0,0,0,0.00,0.00,0.00,0.00
2016-09-17 19:40:00,2,37388,23,0.11,2,2,0,2,20083,50000,10503,40310,0,51,24,20,0.00,0.65,0.19,0.03
2016-09-17 19:50:00,2,50000,5,0.00,2,2,0,2,50000,50000,0,50000,0,51,15,0,0.00,0.00,0.00,0.00
2016-09-17 20:00:00,2,49677,0,0.00,2,2,0,2,48291,50000,648,50000,0,0,0,0,0.00,0.00,0.00,0.00
2016-09-17 20:10:00,2,50000,0,0.00,2,2,0,2,50000,50000,0,50000,0,0,0,0,0.00,0.00,0.00,0.00
2016-09-17 20:20:00,2,49500,0,0.00,2,2,0,2,44998,50000,1501,50000,0,0,0,0,0.00,0.00,0.00,0.00
2016-09-17 20:30:00,2,50000,0,0.00,2,2,0,2,50000,50000,0,50000,0,0,0,0,0.00,0.00,0.00,0.00
2016-09-17 20:40:00,2,50000,0,0.00,2,2,0,2,50000,50000,0,50000,0,0,0,0,0.00,0.00,0.00,0.00
2016-09-17 20:50:00,2,50000,0,0.00,2,2,0,2,50000,50000,0,50000,0,0,0,0,0.00,0.00,0.00,0.00
2016-09-17 21:00:00,2,47125,26,0.05,2,2,0,2,29322,50000,6381,50000,0,61,27,20,0.00,0.20,0.07,0.00
2016-09-17 21:10:00,2,46064,57,0.87,2,2,0,2,34664,50000,4861,48516,51,61,5,61,0.20,2.55,0.77,0.42
2016-09-17 21:20:00,2,50000,59,0.52,2,2,0,2,50000,50000,0,50000,51,61,4,61,0.10,1.65,0.47,0.33
2016-09-17 21:30:00,2,48188,51,0.39,2,2,0,2,37303,50000,3972,50000,51,51,0,51,0.00,1.35,0.45,0.15
2016-09-17 21:40:00,2,49742,0,0.00,2,2,0,2,47824,50000,651,50000,0,0,0,0,0.00,0.00,0.00,0.00
2016-09-17 21:50:00,2,49592,0,0.00,2,2,0,2,46929,50000,910,50000,0,0,0,0,0.00,0.00,0.00,0.00
2016-09-17 22:00:00,2,49163,0,0.00,2,2,0,2,41633,50000,2510,50000,0,0,0,0,0.00,0.00,0.00,0.00
2016-09-17 22:10:00,2,17309,0,0.00,2,2,0,2,8348,28583,7779,14402,0,0,0,0,0.00,0.00,0.00,0.00
2016-09-17 22:20:00,2,25901,0,0.00,2,2,0,2,9738,50000,16679,17360,0,0,0,0,0.00,0.00,0.00,0.00
2016-09-17 22:30:00,2,49801,0,0.00,2,2,0,2,48009,50000,597,50000,0,0,0,0,0.00,0.00,0.00,0.00
2016-09-17 22:40:00,2,50000,0,0.00,2,2,0,2,50000,50000,0,50000,0,0,0,0,0.00,0.00,0.00,0.00
2016-09-17 22:50:00,2,49981,0,0.00,2,2,0,2,49810,50000,57,50000,0,0,0,0,0.00,0.00,0.00,0.00
2016-09-17 23:00:00,2,50000,0,0.00,2,2,0,2,50000,50000,0,50000,0,0,0,0,0.00,0.00,0.00,0.00
2016-09-17 23:10:00,2,50000,0,0.00,2,2,0,2,50000,50000,0,50000,0,0,0,0,0.00,0.00,0.00,0.00
2016-09-17 23:20:00,2,49856,0,0.00,2,2,0,2,48555,50000,434,50000,0,0,0,0,0.00,0.00,0.00,0.00
2016-09-17 23:30:00,2,50000,0,0.00,2,2,0,2,50000,50000,0,50000,0,0,0,0,0.00,0.00,0.00,0.00
2016-09-17 23:40:00,2,50000,0,0.00,2,2,0,2,50000,50000,0,50000,0,0,0,0,0.00,0.00,0.00,0.00
2016-09-17 23:50:00,2,49987,0,0.00,2,2,0,2,49872,50000,38,50000,0,0,0,0,0.00,0.00,0.00,0.00
